[[{"header":{"parameterUnit":"m.s-1","parameterCategory":1,"la1":30.2992,"la2":30.254,"lo1":-89.0895,"lo2":-89.0443,"dy":0.0025,"dx":0.0025,"nx":19,"ny":19,"refTime":"2026-03-20T09:00:00:Z","depth":0,"parameterNumber":2,"parameterNumberName":"U-component_of_WINDS"},"data":[0,0,0,0.3766,0.377,0.3973,0.3974,0.421,0.4211,0,0,0,0,0,0,0,0,0,0,0,0.369,0.3691,0.3766,0.377,0.3973,0.3974,0.4209,0.4211,0,0,0,0,0,0,0,0,0,0,0,0.369,0.3691,0.3692,0.3771,0.3973,0.3974,0.4209,0.4064,0,0,0,0,0,0,0,0,0,0,0.3871,0.3786,0.3691,0.3692,0.3772,0.3973,0.3974,0.4058,0.4073,0.4107,0,0.4132,0,0.4175,0.4225,0.4226,0,0,0,0.3782,0.3773,0.3842,0.3693,0.3774,0.3972,0.3885,0.4067,0.4084,0.4127,0.4135,0.4145,0.4179,0.4227,0.4228,0.4379,0.4379,0,0,0.3771,0.3719,0.3829,0.3852,0.3819,0.3878,0.3891,0.4078,0.4084,0.4136,0.4151,0.4183,0.4228,0.423,0.4379,0.4379,0,0,0,0.3731,0.371,0.3775,0.3842,0.388,0.3884,0.3899,0.4075,0.4101,0.4154,0.4186,0.4229,0.4232,0.4379,0.4379,0.4336,0,0,0,0.3725,0.3687,0.377,0.374,0.3876,0.398,0.3891,0.4088,0.4111,0.4184,0.423,0.4234,0.4379,0.4379,0.4337,0.4324,0,0,0,0.3682,0.3682,0.3706,0.3736,0.3822,0.3978,0.4015,0.4094,0.413,0.4226,0.4235,0.4379,0.4379,0.4338,0.4326,0.4348,0,0,0,0.3623,0.3665,0.3705,0.3765,0.382,0.395,0.4014,0.4114,0.4192,0.4231,0.4379,0.4379,0.4338,0.4327,0.4349,0.4358,0.4357,0,0,0.3648,0.3666,0.3706,0.3747,0.3857,0.3923,0.4027,0.4148,0.4205,0.4318,0.4323,0.4336,0.4326,0.4349,0.4369,0.4367,0,0,0,0.3696,0.3724,0.3765,0.3836,0.3929,0.4008,0.4118,0.4163,0.4261,0.4252,0.4353,0.4348,0.4363,0.437,0.4369,0.4386,0.438,0.438,0.438,0.3657,0.3727,0.3798,0.3892,0.396,0.4074,0.4136,0.4216,0.4268,0.429,0.4324,0.4327,0.4333,0.4333,0.4349,0.4334,0.4334,0.4334,0.4334,0.37,0.375,0.3817,0.3909,0.3983,0.4062,0.4172,0.4206,0.429,0.4308,0.4325,0.4338,0.4329,0.4347,0.4331,0.4332,0.4332,0.4332,0.4333,0.3682,0.3718,0.3771,0.3882,0.3958,0.4053,0.413,0.4196,0.4258,0.4275,0.4317,0.4318,0.4327,0.429,0.429,0.429,0.429,0.429,0.429,0.3642,0.3703,0.376,0.3862,0.3916,0.3996,0.4109,0.4165,0.4243,0.4284,0.4285,0.4334,0.4315,0.4309,0.4291,0.4291,0.4291,0.4291,0.4291,0.3659,0.3665,0.3753,0.3807,0.3932,0.4003,0.4085,0.4192,0.4248,0.4283,0.4329,0.4304,0.4329,0.433,0.4326,0.4314,0.4314,0.4314,0.4314,0.3643,0.3662,0.3766,0.3848,0.3936,0.4019,0.4116,0.4204,0.4297,0.4336,0.4347,0.4346,0.4345,0.437,0.4371,0.4367,0.4366,0.4366,0.4367,0.3658,0.3688,0.3757,0.3848,0.395,0.4036,0.4129,0.4221,0.4328,0.437,0.4367,0.4365,0.4365,0.4361,0.4402,0.4402,0.4397,0,0]},{"header":{"parameterUnit":"m.s-1","parameterCategory":1,"la1":30.2992,"la2":30.254,"lo1":-89.0895,"lo2":-89.0443,"dy":0.0025,"dx":0.0025,"nx":19,"ny":19,"refTime":"2026-03-20T09:00:00:Z","depth":0,"parameterNumber":3,"parameterNumberName":"V-component_of_WINDS"},"data":[0,0,0,4.3671,4.3671,4.3671,4.3671,4.3691,4.3691,0,0,0,0,0,0,0,0,0,0,0,4.3684,4.3684,4.3671,4.3671,4.3671,4.3671,4.3691,4.3691,0,0,0,0,0,0,0,0,0,0,0,4.3683,4.3684,4.3685,4.3671,4.3671,4.3671,4.3691,4.3684,0,0,0,0,0,0,0,0,0,0,4.368,4.3704,4.3684,4.3685,4.3672,4.3671,4.3671,4.3683,4.3684,4.3699,0,4.3717,0,4.3704,4.3694,4.3694,0,0,0,4.3662,4.3703,4.3692,4.3685,4.3672,4.3671,4.3669,4.3683,4.3685,4.3701,4.3717,4.3717,4.3705,4.3694,4.3694,4.3814,4.3815,0,0,4.3662,4.369,4.3691,4.3693,4.3695,4.3669,4.3669,4.3684,4.3703,4.3717,4.3717,4.3705,4.3694,4.3694,4.3813,4.3814,0,0,0,4.3668,4.3691,4.3678,4.3693,4.3692,4.3669,4.3669,4.3702,4.3696,4.3717,4.3705,4.3694,4.3695,4.3812,4.3813,4.389,0,0,0,4.3668,4.3694,4.3679,4.3696,4.3692,4.3697,4.3688,4.3695,4.3695,4.3705,4.3694,4.3695,4.3811,4.3813,4.3885,4.3922,0,0,0,4.3679,4.3695,4.37,4.3698,4.3699,4.3696,4.369,4.3694,4.3689,4.3694,4.3695,4.381,4.3812,4.3881,4.3915,4.3961,0,0,0,4.37,4.3768,4.3701,4.3773,4.3699,4.3744,4.369,4.3722,4.3735,4.3695,4.3811,4.3813,4.388,4.3911,4.3957,4.4005,4.4028,0,0,4.3802,4.3782,4.3822,4.3762,4.3825,4.3741,4.3816,4.3801,4.3776,4.3803,4.3805,4.3887,4.3914,4.396,4.4145,4.4163,0,0,0,4.3864,4.3893,4.3903,4.3918,4.3908,4.3903,4.3874,4.3868,4.3889,4.3796,4.3915,4.393,4.3956,4.3978,4.3993,4.4013,4.3824,4.3824,4.3824,4.405,4.4013,4.4076,4.404,4.4054,4.4023,4.4031,4.4017,4.3977,4.4006,4.4014,4.413,4.4157,4.4168,4.4189,4.4036,4.4036,4.4036,4.4036,4.4197,4.4232,4.4175,4.4216,4.4177,4.4211,4.4183,4.4152,4.4178,4.4121,4.4142,4.4084,4.4189,4.4206,4.4042,4.4041,4.404,4.404,4.4039,4.4315,4.4325,4.4317,4.4332,4.4348,4.4308,4.4335,4.4298,4.4263,4.4283,4.4287,4.4286,4.428,4.4288,4.4288,4.4289,4.4289,4.4289,4.4289,4.4441,4.4429,4.4456,4.4451,4.4454,4.4454,4.4422,4.4424,4.4417,4.4388,4.4388,4.4344,4.4206,4.4173,4.4296,4.4294,4.4294,4.4293,4.4293,4.4604,4.4561,4.4603,4.4607,4.4596,4.4614,4.4566,4.4573,4.4569,4.4583,4.4534,4.4439,4.4416,4.4403,4.4375,4.4542,4.4542,4.4542,4.4543,4.4704,4.4688,4.4722,4.473,4.4733,4.4693,4.4741,4.4716,4.4684,4.4679,4.4649,4.4609,4.4598,4.4581,4.4564,4.4537,4.4743,4.4743,4.4743,4.4802,4.4784,4.4833,4.4801,4.4789,4.478,4.4824,4.4834,4.4789,4.475,4.4675,4.4666,4.46,4.4581,4.4542,4.4517,4.4467,0,0]}]]